Wind_Speed
37 32 30 34 35 30 24 19 18 16 14 12 7 6 8 11 19 25 30 35 33 38 31 27 25 18 8 17 23 15 22 24 27 27 24 23 22 21 20 20 20 21 24 26 28
40 36 31 34 37 33 28 23 20 19 16 14 11 6 6 9 18 24 29 33 33 34 36 32 32 35 29 22 10 25 26 28 25 24 23 23 22 21 21 21 19 23 22 23 25
42 40 37 33 39 36 32 28 23 19 19 15 13 10 7 10 13 21 27 28 30 29 30 30 27 19 27 25 27 20 20 21 23 22 20 22 18 18 20 20 22 24 28 24 29
44 41 38 35 38 39 36 33 28 23 20 17 16 14 11 12 14 17 27 26 25 28 24 22 19 17 20 23 21 18 16 17 19 14 16 14 15 18 19 20 22 23 24 24 25
45 42 41 38 36 39 40 38 33 28 23 20 17 16 14 16 16 15 17 24 23 26 26 22 22 11 15 13 12 15 18 16 11 8 11 12 12 12 16 16 19 19 20 22 22
46 45 42 41 37 37 41 42 38 33 29 25 21 20 17 17 18 19 18 20 23 22 24 11 20 17 21 14 14 12 10 15 13 11 8 6 6 7 11 12 11 12 14 15 16
45 45 43 41 38 37 37 40 42 40 35 31 25 23 21 16 20 21 19 21 22 23 16 8 20 20 16 13 18 14 12 13 11 12 8 6 3 1 0 1 5 9 9 9 10
43 43 43 41 38 37 36 37 40 44 40 36 32 27 27 23 18 22 22 22 25 26 19 17 13 14 14 17 20 18 15 17 15 15 13 10 8 7 7 6 9 8 8 8 12
42 41 42 42 39 39 38 37 37 39 42 41 37 32 30 30 30 27 25 22 24 27 25 23 19 15 12 18 10 16 12 13 14 19 16 13 12 11 13 14 15 15 13 11 9
38 39 40 41 40 38 38 37 37 37 39 42 41 38 35 33 34 31 29 27 26 28 28 27 25 26 16 13 7 20 13 13 16 16 16 14 13 16 17 22 22 23 20 16 16
34 36 37 40 39 38 38 38 37 37 37 40 42 43 41 38 35 36 33 33 28 36 29 28 30 30 31 27 24 13 15 6 18 12 15 20 23 22 20 23 25 26 24 22 17
29 32 35 38 38 39 38 38 38 37 37 40 41 41 44 44 42 39 43 40 39 41 33 29 35 37 41 37 33 29 18 11 18 26 23 22 26 29 22 22 29 30 28 26 26
24 29 31 33 36 39 38 40 39 40 39 41 40 41 44 48 47 46 43 45 46 46 46 44 39 37 45 44 42 42 32 32 22 14 10 21 15 19 23 26 31 26 32 33 32
16 20 24 28 30 35 36 38 40 41 41 41 41 41 43 45 48 50 50 48 48 48 50 50 49 45 45 40 45 49 44 44 48 42 47 36 31 29 30 30 28 23 26 27 24
10 15 19 24 28 32 35 38 40 43 40 43 44 46 47 48 47 48 51 54 54 53 52 54 54 52 50 49 49 52 51 49 46 51 46 50 42 36 31 30 29 22 29 29 40
5 6 12 16 20 25 29 33 38 41 39 43 48 48 48 48 49 50 51 51 55 56 58 60 60 59 59 59 56 56 52 57 59 58 50 52 46 48 37 33 39 40 40 38 34
1 2 4 6 9 13 19 24 30 35 38 40 45 49 49 51 51 52 52 53 54 54 55 58 62 62 62 63 64 64 61 64 64 64 66 63 54 57 67 63 57 54 59 46 34
5 5 6 9 11 12 14 17 21 20 25 29 34 41 44 47 52 54 55 58 58 58 58 59 60 62 64 64 67 69 68 67 67 67 70 73 71 71 74 70 67 67 61 47 52
13 15 17 17 17 17 18 20 22 20 21 25 30 30 31 34 39 44 49 55 59 61 62 63 62 66 67 62 66 68 67 72 72 72 74 78 78 74 72 75 75 67 56 51 53
20 21 21 21 22 25 28 29 29 27 27 30 32 33 31 35 36 37 39 43 46 50 54 59 62 70 69 70 67 69 72 73 73 73 76 78 83 83 80 77 72 75 64 66 69
24 26 27 29 31 32 33 34 35 33 34 40 41 38 38 41 41 42 43 45 47 48 51 53 55 61 60 64 68 73 75 81 76 78 81 83 89 87 77 78 85 85 68 70 77
22 25 26 30 32 34 37 41 42 43 41 42 46 45 46 47 49 51 53 55 57 55 54 56 59 57 61 65 66 67 69 78 85 81 84 85 88 84 65 73 90 84 85 86 78
29 31 37 39 39 39 39 42 44 47 46 48 50 49 49 52 53 56 58 62 64 65 65 65 62 61 61 70 73 72 69 74 77 81 83 87 90 83 72 68 74 79 69 65 72
41 40 45 44 41 42 43 47 51 48 49 44 47 53 56 56 57 58 60 66 69 67 70 69 66 64 66 76 78 78 74 72 75 78 80 85 88 82 83 80 80 81 87 85 81
42 42 42 47 44 45 44 47 48 49 47 47 47 51 53 55 56 58 59 64 72 65 68 70 67 65 70 79 80 83 80 79 80 79 82 87 90 85 81 86 93 94 91 90 87
36 38 41 42 46 47 46 45 45 46 47 48 49 49 49 50 53 58 63 67 74 72 69 69 69 71 67 81 72 80 86 82 84 85 88 91 91 87 79 78 78 84 90 90 89
41 43 45 43 45 48 45 43 42 42 41 43 43 45 47 52 55 56 59 62 68 73 73 71 76 79 80 80 76 80 81 79 77 84 86 80 84 78 83 85 85 89 89 89 89
Wind_Direction
219 218 219 214 213 210 206 205 198 206 184 176 159 106 95 96 103 100 96 93 87 89 94 100 115 141 169 108 123 147 136 131 129 127 123 117 111 103 91 78 73 63 58 55 54
218 217 218 214 213 212 209 209 203 204 195 184 177 145 117 105 120 115 114 104 101 99 99 100 106 100 110 122 101 123 124 129 128 125 122 117 105 100 76 66 67 56 54 52 54
215 215 214 216 216 215 212 213 209 206 203 194 188 170 156 127 134 140 131 120 117 113 108 103 101 95 110 102 110 114 123 121 121 117 124 116 73 88 71 71 66 61 57 56 58
213 213 215 215 217 215 216 214 214 208 208 207 193 193 170 147 146 150 147 136 129 127 118 112 105 117 130 129 122 123 121 126 131 119 106 116 73 77 75 77 68 63 62 58 48
211 212 216 216 218 218 217 219 215 216 215 209 196 194 181 168 162 160 160 158 142 149 136 133 112 113 147 133 128 140 130 139 131 124 111 98 77 73 84 90 88 70 56 54 55
210 210 214 218 217 220 220 221 218 219 221 218 206 195 189 182 176 172 163 164 162 162 165 151 151 167 169 166 166 167 163 154 153 150 136 113 83 79 81 85 93 61 62 53 47
210 210 212 217 218 220 220 223 224 223 225 226 217 202 189 192 185 191 189 174 178 178 182 167 155 179 182 217 174 195 205 207 192 182 180 186 173 204 323 78 26 28 38 38 36
210 213 213 218 220 223 223 224 225 227 226 228 223 214 198 187 195 204 208 192 186 188 204 215 196 204 212 220 179 211 217 228 219 216 221 230 229 262 288 306 315 324 332 3 1
213 214 213 217 220 224 223 225 227 228 229 227 228 222 214 196 196 191 202 206 204 201 209 211 214 205 205 235 251 225 228 234 250 232 223 235 254 266 286 288 291 295 299 299 306
213 215 218 218 221 225 226 226 227 229 230 229 229 228 226 217 201 212 198 204 213 217 206 213 216 210 209 213 219 203 227 262 260 228 222 238 257 276 288 291 289 289 280 278 287
213 214 217 221 221 228 230 231 232 231 232 232 233 233 230 232 221 210 212 195 200 212 216 218 208 218 215 204 216 231 236 241 231 231 279 274 275 278 280 277 277 279 275 276 280
212 217 218 222 222 227 233 234 235 236 235 236 235 233 233 233 232 225 212 213 215 217 210 219 226 218 225 214 214 215 219 257 226 254 273 265 272 279 269 290 285 285 271 268 272
215 216 220 224 227 229 233 236 235 237 237 236 239 238 235 233 235 235 233 225 222 227 235 222 211 231 229 229 223 223 209 207 182 225 234 248 235 253 275 275 285 292 290 268 273
210 215 221 225 228 228 234 237 236 239 240 239 239 239 239 239 238 237 238 237 236 231 232 243 244 228 222 231 232 235 235 237 232 238 238 245 259 247 253 271 259 266 264 267 271
209 221 225 226 228 231 234 236 238 239 239 239 240 239 237 237 239 241 241 240 239 237 236 237 245 252 249 240 242 240 241 236 239 239 243 242 248 248 248 252 239 267 262 283 288
138 204 225 229 232 232 235 237 239 241 241 239 242 241 243 240 242 242 242 242 243 243 242 241 239 242 247 248 247 248 247 251 249 241 231 238 239 235 232 234 241 247 267 283 273
105 203 228 232 233 236 237 237 239 241 241 241 244 247 243 245 244 245 245 243 245 246 246 246 245 242 240 243 244 248 248 251 252 252 249 234 225 236 257 258 251 252 252 265 275
258 246 245 258 258 247 243 244 248 242 245 241 242 244 246 244 247 246 246 248 247 246 246 247 248 251 248 246 245 244 245 250 253 256 256 252 244 241 250 256 261 265 272 265 256
293 278 270 261 251 253 256 257 256 250 250 243 246 246 249 248 244 245 245 248 249 249 249 248 248 249 251 249 252 251 250 247 248 250 253 256 255 248 250 250 252 255 259 262 261
286 285 280 278 272 265 261 261 260 256 256 254 254 253 249 251 250 244 245 247 248 249 248 250 249 251 251 250 250 253 254 252 253 252 254 255 255 252 249 249 251 252 246 253 262
285 281 280 278 275 273 271 268 266 263 258 260 259 259 258 259 256 255 255 254 254 255 252 249 250 253 251 252 250 246 250 255 251 252 253 253 257 257 257 258 254 252 246 247 253
292 288 297 288 284 278 274 271 268 264 263 264 265 265 263 262 264 264 261 259 257 255 256 258 256 253 257 254 252 251 248 249 255 254 255 256 257 263 273 277 268 269 267 259 258
295 295 295 293 286 281 279 278 273 269 265 263 267 265 263 264 264 266 267 266 264 262 260 259 257 260 261 262 257 249 248 252 252 251 252 255 255 256 248 270 263 259 262 264 265
287 291 289 293 288 282 281 280 271 268 266 265 264 265 264 265 266 265 266 266 266 264 264 263 260 259 259 258 260 259 254 252 254 256 255 255 255 251 249 245 252 260 263 267 266
291 289 286 290 285 282 286 280 273 267 261 265 268 267 264 263 265 268 267 267 268 267 267 266 263 258 259 257 256 257 257 256 256 256 257 257 256 255 253 253 254 260 263 262 262
301 295 293 290 285 283 285 278 274 265 257 263 269 265 266 268 268 271 271 269 271 272 268 267 264 258 254 255 256 256 257 254 254 255 255 257 258 258 260 262 261 262 262 263 264
294 299 298 291 285 281 278 270 269 261 258 264 266 268 271 273 276 277 276 276 275 272 269 262 259 257 254 255 254 254 257 257 257 257 260 259 260 261 259 261 264 265 265 266 266
Height
10967 10972 10976 10981 10987 10993 10998 11002 11006 11009 11013 11016 11018 11019 11021 11023 11024 11023 11022 11021 11019 11018 11016 11016 11017 11019 11020 11022 11025 11027 11024 11025 11027 11029 11029 11029 11033 11034 11033 11031 11029 11027 11024 11021 11019
10962 10968 10973 10978 10984 10990 10996 11000 11004 11008 11012 11015 11018 11020 11022 11025 11026 11026 11025 11025 11025 11022 11021 11020 11019 11020 11024 11028 11028 11030 11030 11031 11031 11032 11034 11036 11037 11036 11035 11034 11033 11030 11027 11025 11024
10958 10963 10968 10974 10980 10986 10993 10998 11002 11006 11010 11014 11017 11020 11023 11025 11027 11028 11028 11028 11029 11028 11026 11026 11026 11025 11031 11030 11029 11033 11036 11036 11036 11038 11040 11040 11038 11037 11037 11037 11035 11033 11032 11029 11029
10953 10959 10964 10970 10976 10982 10989 10994 11000 11004 11008 11012 11016 11020 11022 11025 11027 11027 11029 11030 11032 11035 11032 11031 11032 11031 11032 11031 11031 11034 11037 11038 11038 11040 11040 11040 11039 11039 11038 11039 11038 11035 11035 11033 11031
10948 10954 10960 10964 10971 10978 10984 10990 10996 11001 11005 11010 11014 11018 11021 11024 11025 11026 11029 11034 11036 11033 11033 11031 11030 11037 11036 11035 11037 11037 11035 11037 11039 11040 11039 11039 11038 11039 11040 11041 11040 11039 11037 11036 11035
10943 10950 10955 10960 10966 10972 10979 10985 10992 10998 11002 11006 11011 11016 11019 11022 11023 11024 11028 11033 11035 11033 11031 11035 11030 11036 11039 11037 11037 11040 11039 11037 11037 11038 11038 11038 11038 11040 11041 11043 11043 11042 11040 11039 11037
10939 10945 10951 10956 10962 10967 10974 10980 10987 10993 10998 11003 11008 11013 11018 11020 11022 11022 11025 11030 11033 11031 11032 11031 11032 11038 11038 11039 11040 11040 11041 11038 11037 11037 11037 11037 11038 11040 11042 11042 11042 11043 11042 11041 11041
10935 10942 10947 10953 10958 10963 10970 10975 10981 10987 10993 10998 11004 11009 11014 11017 11020 11020 11022 11025 11029 11030 11030 11031 11036 11036 11036 11035 11037 11036 11037 11039 11037 11037 11036 11037 11038 11040 11042 11042 11042 11043 11043 11042 11037
10932 10938 10944 10949 10953 10959 10965 10971 10976 10981 10987 10993 10999 11004 11009 11015 11017 11019 11019 11021 11022 11025 11028 11030 11032 11034 11032 11032 11033 11031 11033 11035 11035 11036 11036 11037 11038 11039 11040 11040 11041 11041 11041 11040 11039
10928 10935 10940 10946 10950 10955 10960 10966 10971 10976 10981 10987 10992 10997 11004 11009 11013 11014 11016 11017 11018 11019 11022 11025 11027 11028 11030 11031 11033 11026 11028 11031 11034 11034 11035 11037 11036 11036 11037 11038 11038 11038 11038 11037 11036
10925 10931 10936 10942 10947 10950 10955 10960 10966 10971 10975 10980 10986 10991 10995 11000 11006 11011 11011 11014 11014 11015 11018 11020 11025 11023 11024 11029 11029 11027 11026 11028 11033 11033 11032 11034 11033 11031 11032 11032 11032 11033 11033 11033 11032
10923 10928 10933 10937 10942 10945 10950 10955 10959 10964 10969 10973 10977 10982 10987 10991 10996 11003 11008 11010 11013 11013 11015 11017 11018 11019 11019 11023 11024 11023 11025 11027 11028 11028 11026 11025 11025 11025 11025 11026 11027 11027 11028 11027 11027
10921 10925 10929 10933 10937 10940 10944 10947 10952 10956 10961 10966 10971 10974 10977 10981 10986 10991 10997 11002 11005 11006 11006 11011 11011 11014 11013 11015 11017 11018 11021 11024 11021 11020 11015 11017 11019 11020 11020 11020 11022 11020 11022 11023 11023
10919 10922 10925 10928 10932 10934 10937 10941 10945 10948 10954 10958 10962 10967 10968 10971 10976 10981 10984 10989 10993 10997 10999 10997 10999 11005 11006 11008 11011 11013 11014 11011 11014 11014 11013 11010 11012 11017 11017 11016 11016 11017 11019 11017 11019
10918 10920 10922 10924 10926 10929 10932 10934 10937 10939 10947 10949 10952 10951 10958 10962 10966 10969 10974 10977 10980 10984 10990 10989 10991 10991 10994 10997 10999 11000 11000 11001 11002 11003 11005 11003 11008 11011 11008 11008 11010 11013 11015 11012 11011
10918 10919 10919 10920 10922 10924 10926 10928 10930 10932 10938 10940 10938 10943 10947 10953 10956 10959 10962 10965 10968 10972 10976 10977 10982 10983 10982 10983 10987 10986 10993 10986 10989 10992 10999 10994 11002 11003 10998 11003 11005 11007 11009 11006 11001
10918 10918 10918 10919 10919 10920 10920 10921 10921 10925 10927 10930 10931 10932 10938 10939 10945 10947 10950 10953 10956 10960 10962 10963 10968 10970 10974 10974 10976 10973 10980 10975 10978 10979 10980 10987 10992 10994 10985 10990 10995 10995 10998 11002 10998
10917 10917 10917 10917 10917 10917 10917 10917 10916 10920 10920 10922 10922 10921 10925 10929 10931 10934 10937 10937 10942 10946 10948 10950 10954 10954 10955 10960 10964 10965 10967 10966 10964 10964 10962 10963 10976 10982 10975 10979 10983 10985 10982 10986 10988
10914 10914 10914 10914 10914 10913 10913 10912 10913 10915 10916 10916 10915 10916 10917 10917 10919 10920 10923 10924 10925 10929 10933 10936 10943 10937 10940 10948 10947 10947 10954 10950 10952 10950 10947 10943 10950 10963 10964 10968 10973 10976 10972 10969 10970
10910 10909 10909 10909 10909 10908 10907 10906 10906 10908 10908 10909 10908 10908 10910 10909 10909 10911 10912 10912 10912 10913 10917 10919 10926 10921 10926 10931 10936 10935 10931 10933 10936 10939 10933 10930 10928 10936 10947 10954 10955 10959 10965 10962 10961
10904 10902 10902 10901 10900 10900 10899 10899 10898 10900 10900 10896 10897 10900 10900 10899 10899 10900 10901 10900 10901 10900 10901 10904 10907 10904 10911 10913 10916 10920 10916 10910 10919 10919 10918 10918 10904 10912 10941 10943 10941 10941 10945 10947 10947
10897 10894 10894 10892 10891 10889 10887 10887 10888 10887 10889 10887 10885 10887 10887 10887 10885 10885 10885 10884 10885 10888 10889 10888 10890 10894 10892 10891 10893 10897 10902 10899 10896 10906 10901 10901 10897 10904 10933 10924 10910 10913 10920 10928 10933
10888 10887 10882 10880 10879 10877 10876 10875 10873 10871 10877 10875 10871 10872 10873 10871 10871 10868 10868 10864 10865 10867 10868 10870 10874 10877 10876 10868 10867 10874 10880 10877 10881 10882 10881 10876 10882 10901 10912 10911 10890 10896 10902 10910 10916
10877 10876 10868 10868 10866 10863 10863 10861 10856 10858 10856 10861 10859 10855 10855 10856 10855 10854 10852 10846 10841 10847 10845 10847 10855 10859 10858 10843 10842 10850 10859 10864 10860 10860 10862 10857 10859 10880 10884 10894 10879 10878 10889 10891 10895
10862 10860 10857 10852 10851 10847 10847 10843 10842 10840 10843 10841 10842 10840 10839 10837 10837 10836 10834 10827 10815 10828 10827 10826 10832 10836 10834 10819 10824 10823 10832 10840 10843 10843 10831 10831 10834 10853 10874 10875 10870 10870 10869 10870 10869
10849 10845 10843 10840 10834 10830 10830 10827 10826 10823 10825 10826 10824 10823 10823 10822 10819 10817 10814 10808 10799 10802 10808 10806 10806 10806 10810 10786 10811 10805 10799 10812 10815 10817 10809 10808 10819 10835 10846 10844 10842 10840 10840 10841 10843
10836 10832 10827 10824 10820 10815 10813 10810 10810 10810 10811 10811 10810 10809 10808 10805 10803 10799 10793 10791 10783 10775 10776 10783 10775 10772 10775 10777 10787 10780 10781 10789 10796 10787 10790 10805 10804 10818 10817 10819 10822 10817 10817 10818 10816